This is the latest recevied weather packets stored in our database for station/object N5KJT. If no packets are shown the sender has not sent any weather packets the latest 10 day(s).
| Time | Temp. | Humidity | Pressure | Rain* | Wind** | Luminosity | Snow |
|---|---|---|---|---|---|---|---|
| 1787701216 | 33.89° C | 21% | 1024.7 hPa | 0 mm | - | 537 W/m² | - |
| 1787700916 | 33.33° C | 22% | 1024.7 hPa | 0 mm | - | 550 W/m² | - |
| 1787700616 | 33.33° C | 24% | 1024.7 hPa | 0 mm | - | 573 W/m² | - |
| 1787700316 | 33.33° C | 25% | 1024.7 hPa | 0 mm | - | 594 W/m² | - |
| 1787700016 | 33.33° C | 23% | 1024.7 hPa | 0 mm | - | 625 W/m² | - |
| 1787699716 | 33.33° C | 24% | 1024.7 hPa | 0 mm | - | 653 W/m² | - |
| 1787699416 | 32.78° C | 22% | 1024.7 hPa | 0 mm | - | 689 W/m² | - |
| 1787699116 | 32.78° C | 24% | 1024.8 hPa | 0 mm | - | 715 W/m² | - |
| 1787698816 | 32.78° C | 24% | 1024.8 hPa | 0 mm | - | 710 W/m² | - |
| 1787698516 | 32.78° C | 28% | 1024.9 hPa | 0 mm | - | 699 W/m² | - |
| 1787698216 | 32.78° C | 24% | 1024.9 hPa | 0 mm | - | 698 W/m² | - |
| 1787697916 | 32.78° C | 25% | 1024.9 hPa | 0 mm | - | 764 W/m² | - |
| 1787697616 | 32.78° C | 25% | 1024.8 hPa | 0 mm | - | 676 W/m² | - |
| 1787697316 | 32.78° C | 24% | 1024.9 hPa | 0 mm | - | 819 W/m² | - |
| 1787697016 | 32.78° C | 24% | 1025 hPa | 0 mm | - | 829 W/m² | - |
| 1787696716 | 32.78° C | 26% | 1025.1 hPa | 0 mm | - | 844 W/m² | - |
| 1787696416 | 32.22° C | 25% | 1025.1 hPa | 0 mm | - | 861 W/m² | - |
| 1787696116 | 32.22° C | 26% | 1025.2 hPa | 0 mm | - | 879 W/m² | - |
| 1787695816 | 32.22° C | 26% | 1025.3 hPa | 0 mm | - | 900 W/m² | - |
| 1787695516 | 32.22° C | 27% | 1025.4 hPa | 0 mm | - | 917 W/m² | - |
| 1787695216 | 32.22° C | 29% | 1025.5 hPa | 0 mm | - | 935 W/m² | - |
| 1787694916 | 32.22° C | 28% | 1025.6 hPa | 0 mm | - | 953 W/m² | - |
| 1787694616 | 32.22° C | 26% | 1025.7 hPa | 0 mm | - | 967 W/m² | - |
| 1787694316 | 31.67° C | 30% | 1025.7 hPa | 0 mm | - | 983 W/m² | - |
| 1787694016 | 31.67° C | 27% | 1025.8 hPa | 0 mm | - | 996 W/m² | - |
* Rain latest hour (hover to see other rain measurements)
** Current wind speed in m/s (hover to see current wind gust speed)